Location: Berg
(47.2344°N, 9.5296°E)
Time: 12:28:06
(UTC+00:00)

Cosmos 2278 Rocket - Pass Details

Date: 24 January 2021
Orbit: 840 x 847 km, 71.0° (Epoch: 07 March)

Event Time Altitude Azimuth Distance (km) Brightness Sun altitude
Rises 17:20:11 0° 159° (SSE) 3,388 5.3 -11.6°
Reaches altitude 10° 17:23:17 10° 142° (SE) 2,460 4.4 -12.1°
Maximum altitude 17:27:06 19° 99° (E) 1,915 3.5 -12.7°
Enters shadow 17:28:21 18° 83° (E) 1,984 3.5 -12.9°
